Погода в Регите

Россия / Чеченская Республика     43°05′46″N   46°07′28″E
темп.,
°C
ветер,
м/с
пор.,
м/с
влажн.,
%
обл.,
%
осадки,
мм/ч
давл.,
гПа
погр.,
м
23 октября, сб
сб2300:00+11ю21620 0.0 102011
03:00+10ю21620 0.0 102111
06:00+9ю22620 0.0 102112
09:00+14ссз11480 0.0 1021246
12:00+17с22420 0.0 1019717
15:00+16с21450 0.0 1019634
18:00+11ю21650 0.0 102012
21:00+10ю22680 0.0 102014
24 октября, вс
вс2400:00+10ю22700 0.0 101911
03:00+9ю22700 0.0 102014
06:00+9ю22690 0.0 102015
09:00+14ссз11525 0.0 1020401
12:00+16с22475 0.0 1018959
15:00+15ссв225014 0.0 1016803
18:00+10ююв116758 0.0 101710
21:00+9ю116791 0.0 101612
25 октября, пн
пн2500:00+9ю116887 0.0 101511
03:00+8ююз1168100 0.0 101610
06:00+8юз1170100 0.0 101812
09:00+10зсз2464100 0.0 1020601
12:00+8сз3486100 0.1 1023774
15:00+5сз2496100 2.1 1026685
18:00+4зсз2395100 2.9 1029688
21:00+3сз2298100 5.8 1030539
26 октября, вт
вт2600:00+2ссз1298100 1.1 1030416
03:00+2сз1298100 1.6 1031412
06:00+2ссз1298100 0.3 1031459
09:00+3ссз1197100 0.8 1032335
12:00+3с1195100 0.4 1031347
15:00+3ссв1292100 0.4 1031336
18:00+3св1194100 0.0 1031119
21:00+3ссв119489 0.0 103199
27 октября, ср
ср2700:00+2вюв019550 0.0 103052
03:00+2юв019441 0.0 102917
06:00+1юв009322 0.0 102932
09:00+5ссв118366 0.0 1029451
12:00+6с218087 0.0 1027615
15:00+6ссз118595 0.0 1026379
18:00+5зсз019091 0.0 102676
21:00+4ююв119251 0.0 102516